Rock Springs, WY

11:49 PM MST on February 19, 2018 (GMT -0700)
Rock Springs-Sweetwater

Weather History for KRKS - June, 2014

Change the Weather History Date:

Sunday, June 8, 2014

  Actual Average Record
Temperature  
Mean Temperature 50 °F 58 °F  
Max Temperature 58 °F 72 °F 85 °F (1996)
Min Temperature 42 °F 44 °F 30 °F (1950)
Degree Days  
Heating Degree Days 15 8  
Month to date heating degree days 40 69  
Since 1 June heating degree days 40 69  
Since 1 July heating degree days 7384 8044  
Cooling Degree Days 0 0  
Month to date cooling degree days 2 0  
Year to date cooling degree days 9 1  
Since 1 June cooling degree days 2 0  
Moisture  
Dew Point 38 °F    
Average Humidity 55    
Maximum Humidity 80    
Minimum Humidity 30    
Precipitation  
Precipitation 0.10 in 0.03 in 1.13 in (1969)
Month to date precipitation 0.10 0.26  
Year to date precipitation 1.41 3.99  
Sea Level Pressure  
Sea Level Pressure 30.01 in    
Wind  
Wind Speed 13 mph (ENE)    
Max Wind Speed 33 mph    
Max Gust Speed 41 mph    
Visibility 9 miles    
Events Rain , Thunderstorm    
T = Trace of Precipitation, MM = Missing Value Source: NWS Daily Summary

Daily Weather History Graph

Daily Weather History Graph

Search for Another Location

Airport or City:

Trip Planner

Search our weather history database for the weather conditions in past years. The results will help you decide how hot, cold, wet, or windy it might be!

Date:

Astronomy

Jun. 08, 2014 Rise Set
Actual Time 5:42 AM MDT 8:48 PM MDT
Civil Twilight 5:08 AM MDT 9:22 PM MDT
Nautical Twilight 4:25 AM MDT 10:05 PM MDT
Astronomical Twilight 3:34 AM MDT 10:57 PM MDT
Moon 4:07 PM MDT (6/8) 2:40 AM MDT (6/8)
Length of Visible Light 16h 14m
Length of Day
15h 06m
Waxing Gibbous, 77% of the Moon is Illuminated
Jun 8
Waxing Gibbous
Jun 12
Full
Jun 19
Last Quarter
Jun 27
New
Jul 5
First Quarter

Hourly Weather History & Observations

Time (MDT) Temp. Windchill Dew Point Humidity Pressure Visibility Wind Dir Wind Speed Gust Speed Precip Events Conditions
12:54 AM 57.0 °F - 26.1 °F 30% 29.82 in 10.0 mi NNE 6.9 mph - N/A   Clear
1:54 AM 52.0 °F - 39.0 °F 61% 29.83 in 10.0 mi East 9.2 mph - N/A   Clear
2:54 AM 51.1 °F - 41.0 °F 68% 29.83 in 10.0 mi ENE 9.2 mph - N/A   Clear
3:54 AM 48.9 °F - 39.9 °F 71% 29.83 in 10.0 mi ENE 12.7 mph - N/A   Clear
4:54 AM 48.0 °F - 39.9 °F 74% 29.86 in 10.0 mi ENE 8.1 mph - N/A   Clear
5:54 AM 48.0 °F - 41.0 °F 77% 29.87 in 10.0 mi ESE 3.5 mph - N/A   Mostly Cloudy
6:54 AM 48.9 °F - 42.1 °F 77% 29.89 in 10.0 mi SE 6.9 mph - N/A   Overcast
7:54 AM 50.0 °F - 42.1 °F 74% 29.90 in 10.0 mi ENE 6.9 mph - N/A   Overcast
8:54 AM 53.1 °F - 42.1 °F 66% 29.90 in 10.0 mi NE 8.1 mph - N/A   Clear
9:54 AM 55.0 °F - 41.0 °F 59% 29.91 in 10.0 mi NNE 5.8 mph - N/A   Clear
10:54 AM 57.0 °F - 41.0 °F 55% 29.91 in 10.0 mi NE 17.3 mph - N/A   Scattered Clouds
11:54 AM 57.0 °F - 39.9 °F 53% 29.93 in 10.0 mi NE 20.7 mph 24.2 mph N/A   Partly Cloudy
12:54 PM 55.0 °F - 37.0 °F 51% 29.94 in 10.0 mi ENE 21.9 mph 27.6 mph N/A   Clear
1:54 PM 57.0 °F - 37.0 °F 47% 29.96 in 10.0 mi NE 23.0 mph 31.1 mph N/A   Clear
2:32 PM 52.0 °F - 36.0 °F 54% 30.16 in 10.0 mi NE 19.6 mph 29.9 mph N/A Thunderstorm Overcast
2:54 PM 48.0 °F - 39.0 °F 71% 30.09 in 8.0 mi North 21.9 mph 31.1 mph 0.02 in Rain , Thunderstorm Thunderstorms and Rain
3:03 PM 46.0 °F 39.0 °F 39.0 °F 76% 30.22 in 2.5 mi North 17.3 mph 31.1 mph 0.03 in Rain , Thunderstorm Heavy Thunderstorms and Rain
3:18 PM 45.0 °F 38.9 °F 39.9 °F 82% 30.20 in 2.5 mi East 12.7 mph 19.6 mph 0.07 in Rain , Thunderstorm Rain
3:37 PM 45.0 °F 35.1 °F 39.0 °F 80% 30.12 in 7.0 mi East 31.1 mph 38.0 mph 0.08 in Rain Light Rain
3:54 PM 44.1 °F 34.6 °F 39.0 °F 82% 30.07 in 10.0 mi ENE 26.5 mph 38.0 mph 0.08 in   Overcast
4:54 PM 48.0 °F - 41.0 °F 77% 30.09 in 10.0 mi NE 16.1 mph - N/A   Scattered Clouds
5:54 PM 50.0 °F - 37.0 °F 61% 30.08 in 10.0 mi ENE 15.0 mph - N/A   Clear
6:54 PM 52.0 °F - 37.0 °F 57% 30.07 in 10.0 mi ENE 11.5 mph - N/A   Clear
7:54 PM 51.1 °F - 34.0 °F 52% 30.09 in 10.0 mi ENE 11.5 mph - N/A   Clear
8:54 PM 46.0 °F 41.4 °F 32.0 °F 58% 30.12 in 10.0 mi East 9.2 mph - N/A   Partly Cloudy
9:54 PM 45.0 °F 39.7 °F 34.0 °F 65% 30.15 in 10.0 mi SE 10.4 mph - N/A   Clear
10:54 PM 43.0 °F 36.4 °F 36.0 °F 76% 30.15 in 10.0 mi SE 12.7 mph - N/A   Partly Cloudy
11:54 PM 42.1 °F 36.6 °F 36.0 °F 79% 30.16 in 10.0 mi SSE 9.2 mph - N/A   Clear